Regional Weather Roundup
Issued by NWS

Home | Current Version | Previous Version | Text Only | Print | Product List | Glossary Off
Versions: 1 2 3 4 5 6 7 8 9 10 11 12 13 14 15 16 17 18 19 20 21 22 23 24 25 26 27 28 29 30 31 32 33 34 35 36 37 38 39 40 41 42 43 44 45 46 47 48 49 50

000
ASUS43 KFSD 160302
RWRSD

WEATHER ROUNDUP FOR SOUTH DAKOTA
NATIONAL WEATHER SERVICE SIOUX FALLS SD
900 PM CST MON JAN 15 2018

NOTE: "FAIR" INDICATES FEW OR NO CLOUDS BELOW 12,000 FEET WITH NO
SIGNIFICANT WEATHER AND/OR OBSTRUCTIONS TO VISIBILITY.


SDZ001>005-009-010-012>017-160400-
NORTHWEST AND NORTH CENTRAL SOUTH DAKOTA

CITY           SKY/WX    TMP DP  RH WIND       PRES   REMARKS
BUFFALO          N/A    -14 -20  74 W7        30.62S WCI -30
FAITH            N/A    -10 -16  74 NW13      30.73F WCI -30
MOBRIDGE       PTCLDY    -8 -16  67 NW13      30.77S WCI -28
$$

SDZ012>016-024>037-041>051-057-063-072>074-160400-
SOUTHWEST AND SOUTH CENTRAL SOUTH DAKOTA

CITY           SKY/WX    TMP DP  RH WIND       PRES   REMARKS
RAPID CTY ARPT CLEAR     -5 -12  72 N17       30.68S WCI -27
PIERRE         CLEAR     -5 -13  68 N13       30.79S WCI -24
CUSTER         CLEAR     -1 -16  48 NW7       30.43S WCI -14
ELLSWORTH AFB  CLEAR     -3  -9  73 N14       30.67S WCI -22
PHILIP         CLEAR     -7 -12  79 NW10      30.80R WCI -25
PINE RIDGE     CLEAR     -8 -12  83 NW3       30.69R
SPEARFISH        N/A    -11 -17  77 SW6       30.62F WCI -25
WINNER         FAIR      -1 -10  65 N17       30.73F WCI -22
$$

SDZ004>011-016>023-039-040-160400-
NORTHEAST SOUTH DAKOTA

CITY           SKY/WX    TMP DP  RH WIND       PRES   REMARKS
ABERDEEN       CLOUDY    -6 -13  71 N15       30.80R WCI -27
WATERTOWN      CLOUDY    -7 -12  79 N22       30.64R WCI -32
BROOKINGS      MOCLDY    -8 -14  74 N16       30.64  WCI -30
SISSETON         N/A     -6 -12  75 N22G32    30.75R WCI -31
$$

SDZ017-020-022-023-036>040-048>070-160400-
SOUTHEAST SOUTH DAKOTA

CITY           SKY/WX    TMP DP  RH WIND       PRES   REMARKS
SIOUX FALLS    FLURRIES  -5 -11  75 N20G29    30.65R WCI -28
HURON          CLOUDY    -4 -11  72 N20G31    30.76S WCI -27
CHAMBERLAIN    CLEAR     -2 -10  67 NW14G20   30.76S WCI -21
MITCHELL       CLOUDY    -2 -10  69 N26G33    30.76R WCI -27
YANKTON        MOCLDY    -2  -9  72 NW21G29   30.70R WCI -25
$$

ABBREVIATIONS USED IN REMARKS
   TC - TEMPERATURE IN CELSIUS
  WCI - WIND CHILL INDEX
   HX - HEAT INDEX
  VSB - VISIBILITY





USA.gov is the U.S. government's official web portal to all federal, state and local government web resources and services.